Flag for U.S.A. Weather past 2 weeks in Fall River, Massachusetts, U.S.A.

Now
36 °F

Overcast.


Feels Like: 30 °F
Forecast: 26 / 38 °F
Wind: 7 mph from North

Location: New Bedford Regional Airport

Current Time: Dec 20, 2014 at 2:54:47 PM

Latest Report: Dec 20, 2014 at 1:53 PM


Visibility: 10 mi

Pressure: 30.24 "Hg

Humidity: 73%

Dew point: 28 °F

Location of Fall RiverLocation

Historic Weather in Fall River — Graph

°F

Fall River temperature yesterday

Maximum temperature yesterday: 37 °F (at 8:53 AM)
Minimum temperature yesterday: 29 °F (at 11:53 PM)
Average temperature yesterday: 34 °F

Past Weeks' High & Low Weather Summary

 TemperatureHumidityPressure
High55 °F (Dec 9, 6:53 PM)100% (Dec 6, 4:53 AM)30.70 "Hg (Dec 6, 4:53 AM)
Low25 °F (Dec 15, 6:53 AM)38% (Dec 7, 5:53 PM)29.42 "Hg (Dec 10, 2:53 PM)
Average38 °F81%29.98 "Hg
* Reported Dec 5 1:53 PM — Dec 20 1:53 PM, Fall River, Weather by CustomWeather, © 2014

Note: Actual official high and low records may vary slightly from our data, if they occured in-between our weather recording intervals... More about our weather records

Advertising

Fall River weather history for previous 24 hours

 ConditionsComfort  
Time TempWeatherWind HumidityBarometerVisibility
1:53 PM
Dec 20
36 °FOvercast.7 mph73%30.24 "Hg10 mi
12:53 PM35 °FOvercast.7 mph72%30.23 "Hg10 mi
12:03 PM34 °FMostly cloudy.7 mph76%30.23 "Hg10 mi
10:53 AM34 °FOvercast.6 mph73%30.25 "Hg10 mi
9:53 AM33 °FOvercast.5 mph72%30.25 "Hg10 mi
8:53 AM32 °FOvercast.7 mph75%30.26 "Hg10 mi
7:53 AM31 °FOvercast.5 mph79%30.24 "Hg10 mi
6:53 AM31 °FOvercast.3 mph76%30.22 "Hg10 mi
5:53 AM30 °FOvercast.3 mph79%30.20 "Hg10 mi
4:53 AM30 °FOvercast.3 mph75%30.18 "Hg10 mi
3:53 AM29 °FOvercast.No wind79%30.17 "Hg10 mi
2:53 AM29 °FOvercast.6 mph75%30.16 "Hg10 mi
1:53 AM29 °FOvercast.3 mph72%30.16 "Hg10 mi
12:53 AM28 °FPassing clouds.5 mph75%30.14 "Hg10 mi
11:53 PM
Dec 19
29 °FClear.6 mph72%30.13 "Hg10 mi
10:53 PM30 °FClear.5 mph69%30.11 "Hg10 mi
9:53 PM31 °FPassing clouds.6 mph67%30.11 "Hg10 mi
8:53 PM32 °FOvercast.3 mph73%30.10 "Hg10 mi
7:53 PM34 °FOvercast.No wind64%30.08 "Hg10 mi
6:53 PM34 °FOvercast.No wind64%30.06 "Hg10 mi
5:53 PM33 °FOvercast.No wind66%30.03 "Hg10 mi
4:53 PM34 °FOvercast.No wind61%30.01 "Hg10 mi
3:53 PM34 °FOvercast.3 mph61%29.99 "Hg10 mi
2:53 PM35 °FOvercast.3 mph59%29.97 "Hg10 mi
Weather by CustomWeather, © 2014

See weather overviewHow to use our weather pages